Regional Weather Roundup
Issued by NWS

Home | Current Version | Previous Version | Graphics & Text | Print | Product List | Glossary On
Versions: 1 2 3 4 5 6 7 8 9 10 11 12 13 14 15 16 17 18 19 20 21 22 23 24 25 26 27 28 29 30 31 32 33 34 35 36 37 38 39 40 41 42 43 44 45 46 47 48 49 50
000
ASUS43 KBIS 312120
RWRND

NORTH DAKOTA REGIONAL WEATHER ROUNDUP
NATIONAL WEATHER SERVICE BISMARCK ND
300 PM CST SAT JAN 31 2015

NOTE: "FAIR" INDICATES FEW OR NO CLOUDS BELOW 12,000 FEET WITH NO
SIGNIFICANT WEATHER AND/OR OBSTRUCTIONS TO VISIBILITY.


NDZ001>003-009>011-017-312200-
NORTHWEST NORTH DAKOTA

CITY           SKY/WX    TMP DP  RH WIND       PRES   REMARKS
WILLISTON      LGT SNOW   7   0  73 NE15      30.33R VSB 1   WCI -10
MINOT          LGT SNOW   2  -5  72 NE13      30.37R WCI -15
MINOT AFB      LGT SNOW   1  -2  85 NE13      30.38S WCI -16
$$

NDZ018>021-031>035-040>046-312200-
SOUTHWEST NORTH DAKOTA

CITY           SKY/WX    TMP DP  RH WIND       PRES   REMARKS
BISMARCK       CLOUDY    14   2  58 E14       30.28S WCI  -1
DICKINSON      LGT SNOW  11   7  84 E17       30.13F FOG     WCI  -6
GARRISON         N/A      4  -1  80 E12       30.31R WCI -12
HETTINGER ARPT CLOUDY    16  13  88 E22G29    30.09F FOG     WCI  -2
$$

NDZ004>008-012>016-024-026-027-054-312200-
NORTHEAST NORTH DAKOTA

CITY           SKY/WX    TMP DP  RH WIND       PRES   REMARKS
GRAND FORKS    PTSUNNY    1  -9  62 N21       30.44F WCI -21
GRND FRKS AFB  MOSUNNY   -1 -11  61 N21       30.44F WCI -23
DEVILS LAKE    PTSUNNY   -2 -13  60 NE18      30.38R WCI -24
$$

NDZ022-023-025-028>030-036>039-047>053-312200-
SOUTHEAST NORTH DAKOTA

CITY           SKY/WX    TMP DP  RH WIND       PRES   REMARKS
FARGO          CLOUDY    13  -4  46 N22       30.34S WCI  -6
JAMESTOWN      CLOUDY     9  -4  55 NE23      30.29F WCI -11
$$




USA.gov is the U.S. government's official web portal to all federal, state and local government web resources and services.